This is the latest recevied weather packets stored in our database for station/object KI2K. If no packets are shown the sender has not sent any weather packets the latest 10 day(s).
| Time | Temp. | Humidity | Pressure | Rain* | Wind** | Luminosity | Snow |
|---|---|---|---|---|---|---|---|
| 1777976313 | 12.78° C | 99% | 1005.7 hPa | 0 mm | - | 0 W/m² | - |
| 1777976008 | 12.78° C | 99% | 1005.6 hPa | 0 mm | - | 0 W/m² | - |
| 1777975704 | 12.78° C | 99% | 1006.2 hPa | 0 mm | - | 0 W/m² | - |
| 1777975401 | 12.78° C | 99% | 1006.1 hPa | 0 mm | - | 0 W/m² | - |
| 1777975097 | 12.78° C | 99% | 1005.8 hPa | 0 mm | - | 0 W/m² | - |
| 1777974795 | 12.78° C | 99% | 1006 hPa | 0 mm | - | 0 W/m² | - |
| 1777974490 | 12.78° C | 99% | 1005.7 hPa | 0 mm | - | 0 W/m² | - |
| 1777974188 | 12.78° C | 99% | 1005.4 hPa | 0 mm | - | 0 W/m² | - |
| 1777973883 | 12.78° C | 99% | 1005.3 hPa | 0 mm | - | 0 W/m² | - |
| 1777973581 | 12.78° C | 99% | 1005.5 hPa | 0 mm | - | 0 W/m² | - |
| 1777973277 | 12.78° C | 99% | 1005.5 hPa | 0 mm | - | 0 W/m² | - |
| 1777972976 | 12.78° C | 99% | 1005.4 hPa | 0 mm | - | 0 W/m² | - |
| 1777972673 | 12.78° C | 99% | 1005.4 hPa | 0 mm | - | 0 W/m² | - |
| 1777972371 | 12.78° C | 99% | 1005.3 hPa | 0 mm | - | 0 W/m² | - |
| 1777972068 | 12.78° C | 99% | 1005.6 hPa | 0 mm | - | 0 W/m² | - |
| 1777971766 | 12.78° C | 99% | 1005.3 hPa | 1.27 mm | - | 0 W/m² | - |
| 1777971463 | 12.78° C | 99% | 1004.6 hPa | 3.05 mm | - | 0 W/m² | - |
| 1777971162 | 12.78° C | 99% | 1004.7 hPa | 3.05 mm | - | 0 W/m² | - |
| 1777970859 | 12.78° C | 99% | 1005 hPa | 3.05 mm | - | 0 W/m² | - |
| 1777970558 | 12.78° C | 99% | 1004.9 hPa | 4.32 mm | - | 0 W/m² | - |
| 1777970254 | 12.78° C | 99% | 1005.2 hPa | 4.83 mm | - | 0 W/m² | - |
| 1777969951 | 12.78° C | 99% | 1005.1 hPa | 6.6 mm | - | 0 W/m² | - |
| 1777969647 | 12.78° C | 99% | 1005.3 hPa | 7.11 mm | - | 0 W/m² | - |
| 1777969344 | 12.78° C | 99% | 1005.7 hPa | 8.89 mm | - | 0 W/m² | - |
| 1777969040 | 12.78° C | 99% | 1005.8 hPa | 7.87 mm | - | 0 W/m² | - |
* Rain latest hour (hover to see other rain measurements)
** Current wind speed in m/s (hover to see current wind gust speed)